Regional Weather Roundup
Issued by NWS

Home | Current Version | Previous Version | Graphics & Text | Print | Product List | Glossary On
Versions: 1 2 3 4 5 6 7 8 9 10 11 12 13 14 15 16 17 18 19 20 21 22 23 24 25 26 27 28 29 30 31 32 33 34 35 36 37 38 39 40 41 42 43 44 45 46 47 48 49 50
000
ASUS44 KMEG 191110
RWRTN
TENNESSEE HOURLY STATE WEATHER ROUNDUP
NATIONAL WEATHER SERVICE MEMPHIS TN
600 AM CDT TUE SEP 19 2017

TNZ002-004-019-021-049-052-054-088>092-191200-
WEST TENNESSEE

CITY           SKY/WX    TMP DP  RH WIND       PRES   REMARKS
MEMPHIS INTL   CLEAR     70  69  97 S3        29.95S
NWS MEMPHIS      N/A     70 N/A N/A MISG        N/A
JACKSON        CLEAR     69  69 100 CALM      29.95S
DYERSBURG      CLEAR     69  69 100 CALM      29.94S FOG
SOMERVILLE     CLEAR     68  68 100 CALM      29.95R
COVINGTON      PTCLDY    68  68 100 S3        29.94S FOG
UNION CITY     CLEAR     68  68 100 S3        29.92S FOG
BOLIVAR        FOG       68  68 100 CALM      29.95S VSB 3/4
PARIS          MOCLDY    68  68 100 CALM      29.94R FOG
HUNTINGDON     MOCLDY    68  68 100 CALM      29.94R
LEXINGTON      CLEAR     68  66  94 CALM      29.94F FOG
SELMER         PTCLDY    72  70  94 S3        29.95S
SAVANNAH       MOCLDY    68  66  94 CALM      29.95R
$$

TNZ008-025-027-028-033-062-065-066-191200-
NORTH MIDDLE TENNESSEE

CITY           SKY/WX    TMP DP  RH WIND       PRES   REMARKS
NASHVILLE      PTCLDY    69  66  90 CALM      29.98R
PORTLAND       CLEAR     66  64  94 S6        29.97R
CLARKSVILLE    CLOUDY    70  67  90 S3        29.95R
SMYRNA           N/A    N/A N/A N/A MISG        N/A
COOKEVILLE     FOG       59  59 100 CALM      30.00R VSB 1/2
GALLATIN       PTCLDY    66  64  94 CALM      30.00R FOG
CROSSVILLE     CLEAR     60  59  96 CALM      30.06R
$$

TNZ061-075-076-078-094-096-097-191200-
SOUTH MIDDLE TENNESSEE

CITY           SKY/WX    TMP DP  RH WIND       PRES   REMARKS
TULLAHOMA      CLEAR     64  61  88 CALM      30.02R
WINCHESTER     CLEAR     64  63  94 CALM      30.01S
MCMINNVILLE    MOCLDY    61  61 100 CALM      30.00S VSB 3/4
COLUMBIA       CLEAR     66 N/A N/A CALM      29.96R
SHELBYVILLE    CLEAR     64  64 100 E5        29.99R
$$

TNZ017-018-042-046-047-191200-
NORTHEAST TENNESSEE

CITY           SKY/WX    TMP DP  RH WIND       PRES   REMARKS
TRI CITIES     CLEAR     57  56  96 CALM      30.06R FOG
ELIZABETHTON   CLEAR     59  57  94 CALM      30.06S
$$

TNZ012-013-036-069-073-074-191200-
CENTRAL EAST TENNESSEE

CITY           SKY/WX    TMP DP  RH WIND       PRES   REMARKS
KNOXVILLE      CLEAR     63  60  90 CALM      30.01R
OAK RIDGE      FOG       64  63  96 CALM      30.04R VSB 1/2
DOWNTOWN KNOXV FOG       63  63 100 CALM      30.01S VSB 1/2
GATLINBURG     CLEAR     57  57 100 CALM      30.02S
MORRISTOWN     CLEAR     61  59  94 CALM      30.03R
JACKSBORO      FOG       61  61 100 CALM      30.06R VSB 0
$$

TNZ083-085-099-191200-
SOUTHEAST TENNESSEE

CITY           SKY/WX    TMP DP  RH WIND       PRES   REMARKS
CHATTANOOGA    CLEAR     65  62  90 CALM      30.01R
DAYTON         MOSUNNY   61  61 100 CALM      30.00S FOG
$$

SKY/WX REPORTED AS FAIR MEANS FEW OR NO CLOUDS BELOW
12 THOUSAND FEET.





USA.gov is the U.S. government's official web portal to all federal, state and local government web resources and services.